159  
ASUS41 KOKX 010608  
RWROKX  
 
REGIONAL WEATHER ROUNDUP  
NATIONAL WEATHER SERVICE NEW YORK NY  
200 AM EDT SAT OCT 01 2016  
 
NOTE: "FAIR" INDICATES FEW OR NO CLOUDS BELOW 12,000 FEET WITH NO  
SIGNIFICANT WEATHER AND/OR S TO VISIBILITY
.  
 
NYZ071-072-176-178-NJZ106-104-010700-  
NEW YORK CITY METRO AREA  
 
CITY SKY/WX TMP DP RH WIND PRES REMARKS
 
CENTRAL PARK CLOUDY 56 53 90 NE9G16 30.26S  
LAGUARDIA APRT CLOUDY 58 55 90 N14 30.23S  
KENNEDY INTL CLOUDY 58 55 90 N15 30.22S  
NEWARK/LIBERTY DRIZZLE 57 55 93 NE13 30.23S  
BRONX BOT GARD N/A 55 52 88 SE5 30.25F  
WALL ST HELIPT CLOUDY 59 57 94 NE12G21 30.23S  
TETERBORO CLOUDY 57 52 83 N8 30.23F  

 
 
NYZ177-179-078>081-010700-  
LONG ISLAND NEW YORK  
 
CITY SKY/WX TMP DP RH WIND PRES REMARKS
 
FARMINGDALE CLOUDY 59 57 93 NE15 30.21S  
MACARTHUR/ISP CLOUDY 59 57 93 NE16G25 30.21S  
SHIRLEY CLOUDY 59 58 96 N7 30.22F FOG  
RIVERHEAD NOT AVBL  
WESTHAMPTON LGT RAIN 59 58 96 NE14 30.23S  
SOUTHAMPTON N/A 59 59 100 NE7 30.19R  
BRIDGEHAMPTON N/A 59 57 94 E3 30.07S  
EAST HAMPTON CLOUDY 59 58 96 NE12G17 30.21F FOG  
MONTAUK N/A 61 60 97 NE10G24 30.22F  

 
 
NYZ052-065-067-010700-  
HUDSON VALLEY  
 
CITY SKY/WX TMP DP RH WIND PRES REMARKS
 
WHITE PLAINS CLOUDY 55 52 89 N7 30.24S  
NEWBURGH CLOUDY 52 52 100 NE9 30.29S FOG  
MONTGOMERY LGT RAIN 53 51 93 NE10 30.28S FOG  
POUGHKEEPSIE CLOUDY 52 51 97 N6 30.29R  
ALBANY CLOUDY 51 47 86 N6 30.35S  

 
 
NJZ001-105-106-008-010-013-015-019>022-104-010700-  
NEW JERSEY  
 
CITY SKY/WX TMP DP RH WIND PRES REMARKS
 
NEWARK/LIBERTY DRIZZLE 57 55 93 NE13 30.23S  
TETERBORO CLOUDY 57 52 83 N8 30.23F  
CALDWELL CLOUDY 56 53 90 NE6 30.25S  
MORRISTOWN CLOUDY 55 54 94 N6 30.25R  
SOMERVILLE CLOUDY 56 53 90 NE7 30.22S  
LINDEN NOT AVBL  
SUSSEX CLOUDY 53 52 96 NE7G17 30.27S FOG  
ABDOVER N/A 53 52 96 NE7 30.26S  
TRENTON CLOUDY 56 54 93 NE13G18 30.21S FOG  
MILLVILLE CLOUDY 63 63 100 NE13 30.16S FOG  
ATLANTIC CITY CLOUDY 63 62 97 NE8 30.16S FOG  
WRIGHTSTOWN DRIZZLE 59 59 100 NE8 30.08R FOG  
TOMS RIVER LGT RAIN 61 60 97 NE10G21 30.20R FOG  
BELMAR CLOUDY 60 58 92 NE13 30.21R  

 
 
PAZ047>061-062-071-010700-  
EASTERN PENNSYLVANIA  
 
CITY SKY/WX TMP DP RH WIND PRES REMARKS
 
PHILADELPHIA CLOUDY 59 57 93 NE14 30.19F FOG  
ALLENTOWN CLOUDY 56 52 86 NE9 30.24R  
SCRANTON CLOUDY 55 50 83 NE8 30.23F  

 
 
CTZ002-004>006-009-010-012-RIZ004-006-007-MAZ004-011-015-010700-  
SOUTHERN NEW ENGLAND  
IN CT  
 
CITY SKY/WX TMP DP RH WIND PRES REMARKS
 
BRADLEY INTL LGT RAIN 50 48 93 N13 30.31F FOG  
HARTFORD CLOUDY 51 50 96 N15G23 30.29F FOG  
DANBURY CLOUDY 52 51 97 NE8 30.28S  
WTRBURY/OXFORD NOT AVBL  
BRIDGEPORT CLOUDY 56 52 86 NE14G24 30.24F  
MERIDEN LGT RAIN 53 50 89 N10 30.28F FOG  
NEW HAVEN CLOUDY 53 52 96 N16 30.25F  
CHESTER LGT RAIN 55 54 94 N8G14 30.26S  
GROTON CLOUDY 60 57 89 NE13 30.23F  
WILIMANTIC LGT RAIN 56 55 97 N8 30.29S FOG  
 
IN RI  
 
CITY SKY/WX TMP DP RH WIND PRES REMARKS
 
PROVIDENCE LGT RAIN 58 56 93 N10 30.28F FOG  
BLOCK ISLAND LGT RAIN 61 60 97 NE15G26 30.23F  
WESTERLY CLOUDY 59 55 87 NE10 30.24F FOG  
IN MA  
 
CITY SKY/WX TMP DP RH WIND PRES REMARKS
 
BOSTON HVY RAIN 58 57 97 NE16 30.33F FOG  
WORCESTER LGT RAIN 50 49 96 NE12G20 30.32S FOG  
WESTFIELD CLOUDY 49 47 93 N15 30.33F  
PROVINCETOWN LGT RAIN 58 58 100 E15G22 30.31F FOG  
NANTUCKET LGT RAIN 61 59 93 NE20G28 30.23F FOG  

 
 
ANZ330-335-338-340-345-350-353-355-010700-  
COASTAL MARINE OBSERVATIONS  
 
 
STATION/POSITION TIME SKY/WX TEMP WIND PRES VSBY WAVE
 
AIR SEA DIR/SP/G HT/PER  
(UTC) (F) (DEG/KT/KT) (MB) (MI) (FT/S)  
NY HARB ENTRANCE 0550 63 68 40/ 21/ 27 1021.4 9/ 8  
20S FIRE ISLAND 0550 64 67 50/ 27/ 33 1020.4 10/ 8  
GREAT SOUTH BAY 0530 61 63 30/ 14/ 19 N/A  
23 SSW MONTAUK P 0550 63 65 60/ 23/ 29 1021.7 10/ 8  
15 E BARNEGAT LI 0500 69 N/A 10/ 8  
HUDSON CANYON 0450 70 71 1019.2 9/ 9  
KINGS POINT 0536 58 68 1023.5  
EXECUTION ROCKS 0545 60 40/ 17/ 23 N/A  
CENTRAL LI SOUND 0530 59 70 30/ 16/ 21 N/A 2/ 4  
EASTERN LI SOUND NOT AVBL  
ROBBINS REEF 0548 58 30/ 15/ 21 1023.5  

 
 
>>>>>>>>>>>>>>>>>>>>>>>>>>>> KEY <<<<<<<<<<<<<<<<<<<<<<<<<<<  
> <  
> SKY/WX - SKY CONDITION/PRESENT WEATHER <  
> TMP - TEMPERATURE IN FAHRENHEIT <  
> DP - DEW POINT IN FAHRENHEIT <  
> RH - RELATIVE HUMIDITY IN PERCENT <  
> WIND - DIRECTION (FROM) AND SPEED IN MPH <  
> PRES - MEAN SEA LEVEL PRESSURE (INCHES OF HG) <  
> WCI - WIND CHILL INDEX <  
> VSB - VISIBILITY IN MILES <  
> HX - HEAT INDEX <  
> TC - TEMPERATURE IN CELSIUS <  
> VRB - VARIABLE WIND DIRECTION <  
> <  
>>>>>>>>>>>>>>>>>>>>>>>>>>>> KEY <<<<<<<<<<<<<<<<<<<<<<<<<<<  
 
 
CLICK HERE TO GO TO PREVIOUS BULLETINS.

The Nexlab NY Page
The Nexlab NJ Page
The Nexlab CT Page Main Text Page